This is the latest recevied weather packets stored in our database for station/object M0UPS-13. If no packets are shown the sender has not sent any weather packets the latest 10 day(s).
| Time | Temp. | Humidity | Pressure | Rain* | Wind** | Luminosity | Snow |
|---|---|---|---|---|---|---|---|
| 1778091902 | 12.78° C | 52% | 1013.7 hPa | 0 mm | - | 12 W/m² | - |
| 1778091606 | 12.78° C | 52% | 1013.7 hPa | 0 mm | - | 16 W/m² | - |
| 1778091302 | 12.78° C | 52% | 1013.6 hPa | 0 mm | - | 17 W/m² | - |
| 1778091003 | 12.78° C | 52% | 1013.5 hPa | 0 mm | - | 18 W/m² | - |
| 1778090702 | 12.78° C | 52% | 1013.6 hPa | 0 mm | - | 18 W/m² | - |
| 1778090403 | 12.78° C | 52% | 1013.5 hPa | 0 mm | - | 16 W/m² | - |
| 1778090102 | 12.78° C | 54% | 1013.4 hPa | 0 mm | - | 14 W/m² | - |
| 1778089803 | 12.78° C | 54% | 1013.5 hPa | 0 mm | - | 12 W/m² | - |
| 1778089502 | 12.78° C | 54% | 1013.4 hPa | 0 mm | - | 13 W/m² | - |
| 1778089202 | 12.78° C | 53% | 1013.2 hPa | 0 mm | - | 15 W/m² | - |
| 1778088902 | 12.78° C | 53% | 1013.3 hPa | 0 mm | - | 17 W/m² | - |
| 1778088602 | 13.33° C | 53% | 1013.3 hPa | 0 mm | - | 18 W/m² | - |
| 1778088302 | 13.33° C | 52% | 1013.1 hPa | 0 mm | - | 21 W/m² | - |
| 1778088002 | 13.33° C | 52% | 1013.1 hPa | 0 mm | - | 24 W/m² | - |
| 1778087702 | 13.33° C | 53% | 1013.3 hPa | 0 mm | - | 31 W/m² | - |
| 1778087402 | 13.33° C | 53% | 1013.2 hPa | 0 mm | - | 32 W/m² | - |
| 1778087102 | 13.33° C | 52% | 1013.1 hPa | 0 mm | - | 36 W/m² | - |
| 1778086802 | 13.33° C | 51% | 1013.2 hPa | 0 mm | - | 34 W/m² | - |
| 1778086502 | 13.89° C | 53% | 1013.1 hPa | 0 mm | - | 34 W/m² | - |
| 1778086202 | 14.44° C | 53% | 1013.1 hPa | 0 mm | - | 39 W/m² | - |
| 1778085902 | 15° C | 51% | 1013.1 hPa | 0 mm | - | 48 W/m² | - |
| 1778085602 | 15.56° C | 50% | 1013.2 hPa | 0 mm | - | 65 W/m² | - |
| 1778085302 | 15.56° C | 50% | 1013.1 hPa | 0 mm | - | 189 W/m² | - |
| 1778085002 | 15.56° C | 53% | 1013.3 hPa | 0 mm | - | 190 W/m² | - |
| 1778084702 | 15.56° C | 51% | 1013.2 hPa | 0 mm | - | 230 W/m² | - |
* Rain latest hour (hover to see other rain measurements)
** Current wind speed in m/s (hover to see current wind gust speed)